Location: ??????????
(42.1626°N, 44.1160°E)
Time: 14:04:37
(UTC+00:00)

ARGOS - Pass Details

Date: 03 March 2021
Orbit: 819 x 835 km, 98.4° (Epoch: 14 April)

Event Time Altitude Azimuth Distance (km) Brightness Sun altitude
Rises 16:05:47 0° 167° (SSE) 3,363 6.2 -13.7°
Reaches altitude 10° 16:08:07 10° 168° (SSE) 2,435 5.4 -14.2°
Maximum altitude 16:13:32 82° 256° (WSW) 849 3.3 -15.2°
Drops below altitude 10° 16:19:00 10° 345° (NNW) 2,456 5.9 -16.2°
Sets 16:21:22 0° 346° (NNW) 3,394 6.6 -16.6°
